Flag for San Marino Weather past 2 weeks in San Marino, San Marino

Now
82 °F

Sunny.


Feels Like: 86 °F
Forecast: 64 / 78 °F
Wind: 3 mph from East

Location: Rimini Airport

Current Time: Aug 28, 2015 at 11:36:13 AM

Latest Report: Aug 28, 2015 at 10:45 AM


Visibility: 10 mi

Pressure: 30.09 "Hg (27.90 "Hg at 666m altitude)

Humidity: 66%

Dew point: 70 °F

Location of San MarinoLocation

Historic Weather in San Marino — Graph

°F

San Marino temperature yesterday

Maximum temperature yesterday: 82 °F (at 1:45 PM)
Minimum temperature yesterday: 68 °F (at 3:45 AM)
Average temperature yesterday: 76 °F

Past Weeks' High & Low Weather Summary

 TemperatureHumidityPressure
High90 °F (Aug 13, 11:15 AM)89% (Aug 16, 6:15 AM)30.15 "Hg (Aug 16, 6:15 AM)
Low63 °F (Aug 23, 4:15 AM)38% (Aug 17, 3:15 PM)29.71 "Hg (Aug 14, 6:45 PM)
Average76 °F72%29.93 "Hg
* Reported Aug 13 10:15 AM — Aug 28 10:15 AM, San Marino, Weather by CustomWeather, © 2015

Note: Actual official high and low records may vary slightly from our data, if they occured in-between our weather recording intervals... More about our weather records

Advertising

San Marino weather history for previous 24 hours

 ConditionsComfort  
Time TempWeatherWind HumidityBarometerVisibility
10:15 AM
Fri, Aug 28
82 °FSunny.No wind66%30.09 "Hg10 mi
9:45 AM81 °FSunny.No wind66%30.07 "Hg10 mi
9:15 AM79 °FSunny.No wind70%30.07 "Hg10 mi
8:45 AM75 °FSunny.No wind78%30.07 "Hg10 mi
8:15 AM73 °FSunny.No wind78%30.07 "Hg10 mi
7:45 AM72 °FSunny.No wind83%30.07 "Hg10 mi
7:15 AM70 °FClear.No wind83%30.07 "Hg10 mi
6:45 AM70 °FClear.No wind83%30.04 "Hg10 mi
6:15 AM70 °FClear.No wind83%30.04 "Hg10 mi
5:45 AM70 °FClear.No wind83%30.04 "Hg10 mi
4:45 AM72 °FClear.No wind83%30.04 "Hg10 mi
4:15 AM72 °FClear.No wind83%30.04 "Hg10 mi
3:45 AM72 °FClear.1 mph83%30.04 "Hg10 mi
3:15 AM72 °FClear.No wind83%30.04 "Hg10 mi
2:45 AM72 °FClear.2 mph83%30.04 "Hg10 mi
2:15 AM72 °FClear.2 mph83%30.04 "Hg10 mi
1:15 AM73 °FClear.2 mph83%30.04 "Hg10 mi
12:45 AM73 °FClear.3 mph83%30.04 "Hg10 mi
12:15 AM73 °FClear.2 mph83%30.04 "Hg10 mi
11:45 PM
Thu, Aug 27
75 °FClear.2 mph83%30.04 "Hg10 mi
11:15 PM75 °FClear.No wind83%30.04 "Hg10 mi
10:45 PM75 °FClear.No wind83%30.04 "Hg10 mi
10:15 PM75 °FClear.1 mph83%30.01 "Hg10 mi
9:45 PM77 °FClear.2 mph79%30.01 "Hg10 mi
9:15 PM77 °FClear.2 mph83%30.01 "Hg10 mi
8:45 PM79 °FSunny.3 mph79%30.01 "Hg10 mi
8:15 PM79 °FSunny.6 mph79%30.01 "Hg10 mi
7:45 PM81 °FSunny.8 mph74%30.01 "Hg10 mi
7:15 PM81 °FSunny.7 mph74%30.01 "Hg10 mi
6:45 PM81 °FSunny.No wind74%30.01 "Hg10 mi
6:15 PM81 °FSunny.7 mph74%30.01 "Hg10 mi
5:45 PM81 °FPassing clouds.8 mph74%30.01 "HgN/A
5:15 PM81 °FPassing clouds.9 mph74%30.01 "HgN/A
4:45 PM81 °FPassing clouds.9 mph74%30.01 "HgN/A
4:15 PM81 °FPassing clouds.9 mph74%30.01 "HgN/A
3:45 PM82 °FPassing clouds.10 mph70%30.01 "HgN/A
3:15 PM81 °FPassing clouds.10 mph74%30.01 "HgN/A
2:45 PM81 °FPassing clouds.12 mph70%30.04 "HgN/A
2:15 PM82 °FPassing clouds.10 mph70%30.04 "HgN/A
1:45 PM82 °FPassing clouds.9 mph66%30.04 "HgN/A
1:15 PM81 °FPassing clouds.8 mph66%30.04 "HgN/A
12:45 PM81 °FPassing clouds.8 mph66%30.04 "HgN/A
12:15 PM81 °FSunny.5 mph62%30.04 "Hg10 mi
11:45 AM81 °FSunny.5 mph62%30.04 "Hg10 mi
11:15 AM81 °FSunny.5 mph62%30.04 "Hg10 mi
Weather by CustomWeather, © 2015

See weather overviewHow to use our weather pages